FENGYUN 1C DEB, 38157

Orbit data source: Space-Track

FENGYUN 1C DEB, 38157 is space debris in SSO originally from a launch on Mon, 10 May 1999 UTC launched from the Taiyaun Space Center, China (TSC). Fengyun 1C debris stems from the Chinese weather satellite Fengyun-1C, which was intentionally destroyed by a Chinese anti-satellite missile in 2007. This event dramatically increased the amount of space debris, with thousands of trackable fragments posing hazards to satellites and human spaceflight. The Fengyun 1C debris cloud has become a focal point in discussions about space sustainability and the need for international regulations to prevent the creation of new debris.

Loading next visibility...
Identifier
38157, 1999-025ERE
Orbit
SSO
Country
Flag of CNCN / PRC
Related business
Manufacturer
Unknown
Mission
Spacecraft
Bus & Motor
Unknown
Mass
Unknown
Launch date (UTC)
1999-05-10 (26 years ago)
Launch vehicle
Unknown
Launch site
Taiyaun Space Center, China (TSC)
Object type
Payload
Rocket body
Debris
Shape & HBR
Unknown shape, 0.1 m
Radar Cross Section
Small (<0.1 m²)

Expand to show TLE details & history
Last TLE update: 2 days ago

TLE from 2 days ago
0 FENGYUN 1C DEB
1 38157U 99025ERE 25308.69935578  .00002014  00000-0  64806-3 0  9993
2 38157  99.6541 212.0505 0273460 221.3328 136.6864 14.21516683757075
Epoch: 2025-11-04T16:47Z
TLE epoch observation values (Epoch: 2025-11-04T16:47:04.339Z)
Latitude
0.00003°
Longitude
-83.90021°
Altitude
968.828 km
Speed
7.292 km/s
True Right ascension
14h 08m 12s
True Declination
0° 00' 00"
Sunlit
Object was in daylight at epoch
Visualization orbit readout
Latitude
Unknown
Longitude
Unknown
Altitude
Unknown
Speed
Unknown
Apparent Right ascension
Unknown
Apparent Declination
Unknown
Sunlit
N/A
Visualization observer readout
Local Sidereal Time
08:15:35
Azimuth
Unknown
Elevation
Unknown
Doppler factor
Unknown
Orbital elements
Apogee altitude
1,014.199 km
Perigee altitude
620.659 km
Semi-major axis
7,195.566 km
Eccentricity
0.02735
Inclination
99.6541°
RAAN
212.0505°
Arg. of periapsis
221.3328°
True anomaly
138.78335°
Mean anomaly
136.6864°
Eccentric anomaly
137.74007°
Mean motion
3.55587 °/min
Orbital period
101.24 mins
BSTAR
0.00064806
Loading maneuver chart data...
Computing Atmospheric mass density...

Documentation

Showing up to 5 results
|